Home > Weather > Brisbane > Past weeks

Flag for Australia Weather for the Past 2 Weeks in Brisbane, Queensland, Australia

Now
81 °F

Scattered showers. Scattered clouds.


Feels Like: 83 °F
Forecast: 70 / 79 °F
Wind: 14 mph from Southeast

Location: Brisbane Airport M. O

Current Time: Feb 6, 2016 at 10:56:25 AM

Latest Report: Feb 6, 2016 at 10:00 AM


Visibility: N/A

Pressure: 29.86 "Hg

Humidity: 66%

Dew point: 68 °F

Location of BrisbaneLocation

Historic Weather in Brisbane — Graph

°F

Brisbane Temperature Yesterday

Maximum temperature yesterday: 81 °F (at 10:00 AM)
Minimum temperature yesterday: 72 °F (at 12:00 AM)
Average temperature yesterday: 76 °F

High & Low Weather Summary for the Past Weeks

 TemperatureHumidityPressure
High97 °F (Feb 2, 2:00 PM)100% (Jan 29, 3:00 AM)30.01 "Hg (Jan 29, 3:00 AM)
Low68 °F (Jan 27, 5:00 AM)32% (Feb 2, 3:00 PM)29.53 "Hg (Feb 2, 4:30 PM)
Average78 °F78%29.76 "Hg
* Reported Jan 22 9:00 AM — Feb 6 9:00 AM, Brisbane, Weather by CustomWeather, © 2016

Note: Actual official high and low records may vary slightly from our data, if they occured in-between our weather recording intervals... More about our weather records

Advertising

Brisbane Weather History for the Previous 24 Hours

 ConditionsComfort  
Time TempWeatherWind HumidityBarometerVisibility
9:00 AM
Sat, Feb 6
79 °FScattered showers. Scattered clouds.13 mph74%29.86 "HgN/A
8:30 AM75 °FScattered showers. Partly sunny.10 mph83%29.86 "HgN/A
8:00 AM75 °FScattered showers. Broken clouds.10 mph83%29.86 "HgN/A
7:30 AM73 °FScattered showers. Broken clouds.8 mph94%29.83 "HgN/A
7:00 AM72 °FSprinkles. Broken clouds.9 mph94%29.83 "HgN/A
6:30 AM72 °FBroken clouds.9 mph94%29.83 "HgN/A
6:00 AM72 °FScattered showers. Broken clouds.10 mph94%29.83 "HgN/A
5:30 AM72 °FSprinkles. Broken clouds.8 mph94%29.80 "Hg4 mi
5:00 AM72 °FScattered showers. Scattered clouds.10 mph94%29.80 "HgN/A
4:30 AM72 °FScattered showers. Scattered clouds.10 mph88%29.77 "HgN/A
4:00 AM72 °FScattered showers. Passing clouds.9 mph88%29.77 "HgN/A
3:30 AM72 °FScattered showers. Passing clouds.10 mph88%29.77 "HgN/A
3:00 AM72 °FScattered showers. Passing clouds.10 mph88%29.77 "HgN/A
2:30 AM72 °FScattered showers. Passing clouds.10 mph88%29.77 "HgN/A
2:00 AM72 °FPassing clouds.12 mph88%29.77 "HgN/A
1:30 AM73 °FPartly cloudy.10 mph78%29.80 "HgN/A
1:00 AM75 °FScattered showers. Passing clouds.12 mph74%29.80 "HgN/A
12:30 AM75 °FScattered showers. Partly cloudy.12 mph74%29.80 "HgN/A
12:00 AM75 °FScattered showers. Partly cloudy.10 mph74%29.80 "HgN/A
11:30 PM
Fri, Feb 5
75 °FPassing clouds.12 mph74%29.83 "HgN/A
11:00 PM75 °FPassing clouds.13 mph74%29.83 "HgN/A
10:30 PM75 °FScattered showers. Passing clouds.12 mph74%29.83 "HgN/A
10:00 PM75 °FScattered showers. Passing clouds.12 mph74%29.83 "HgN/A
9:30 PM75 °FPassing clouds.10 mph74%29.83 "HgN/A
9:00 PM75 °FPartly cloudy.12 mph74%29.83 "HgN/A
8:30 PM75 °FPartly cloudy.12 mph74%29.83 "HgN/A
8:00 PM77 °FPartly cloudy.12 mph69%29.83 "HgN/A
7:30 PM77 °FPartly cloudy.13 mph74%29.80 "HgN/A
7:00 PM77 °FScattered showers. Partly cloudy.10 mph74%29.80 "HgN/A
6:30 PM77 °FScattered showers. Partly cloudy.14 mph69%29.80 "HgN/A
6:00 PM79 °FScattered showers. Partly cloudy.15 mph70%29.77 "HgN/A
5:30 PM77 °FScattered showers. Broken clouds.12 mph74%29.77 "HgN/A
5:00 PM77 °FScattered showers. Broken clouds.13 mph79%29.77 "HgN/A
4:30 PM79 °FSprinkles. Broken clouds.13 mph70%29.74 "HgN/A
4:00 PM79 °FSprinkles. Broken clouds.12 mph74%29.74 "HgN/A
3:30 PM79 °FSprinkles. Broken clouds.9 mph70%29.74 "HgN/A
3:00 PM77 °FSprinkles. Broken clouds.15 mph79%29.74 "HgN/A
2:30 PM81 °FSprinkles. Partly sunny.14 mph66%29.74 "HgN/A
2:00 PM81 °FScattered showers. Partly sunny.10 mph66%29.77 "HgN/A
1:00 PM79 °FScattered showers. Broken clouds.10 mph70%29.77 "HgN/A
12:30 PM81 °FScattered showers. Broken clouds.8 mph66%29.77 "HgN/A
12:00 PM81 °FScattered showers. Partly sunny.12 mph66%29.80 "HgN/A
11:30 AM79 °FSprinkles. Broken clouds.8 mph70%29.80 "HgN/A
11:00 AM81 °FScattered showers. Broken clouds.12 mph58%29.80 "HgN/A
10:00 AM81 °FSprinkles. Partly sunny.8 mph62%29.80 "HgN/A
Weather by CustomWeather, © 2016

See weather overviewHow to use our weather pages